Location: Deposit
(42.0600°N, 75.4280°W)
Time: 20:03:55
(UTC-05:00)

ISS - Pass Details

Date: 27 October 2019
Orbit: 412 x 421 km, 51.6° (Epoch: 18 November)

Event Time Altitude Azimuth Distance (km) Brightness Sun altitude
Exits shadow 06:07:27 31° 242° (WSW) 759 -2.9 -15.5°
Maximum altitude 06:08:55 81° 327° (NNW) 431 -3.9 -15.3°
Drops below altitude 10° 06:12:18 10° 54° (NE) 1,507 -0.2 -14.6°
Sets 06:14:24 0° 55° (NE) 2,373 0.9 -14.3°
